Regional Weather Roundup
Issued by NWS

Home | Current Version | Previous Version | Graphics & Text | Print | Product List | Glossary On
Versions: 1 2 3 4 5 6 7 8 9 10 11 12 13 14 15 16 17 18 19 20 21 22 23 24 25 26 27 28
000
ASUS45 KSLC 232010
RWRUT

UTAH REGIONAL WEATHER ROUNDUP
NATIONAL WEATHER SERVICE SALT LAKE CITY UT
200 PM MDT MON APR 23 2018

UTZ001>011-023>025-232100-

NORTHERN UTAH

CITY           SKY/WX    TMP DP  RH WIND       PRES   REMARKS
BRIGHAM CITY     N/A     61  23  22 W12       30.16F
DUGWAY         PTSUNNY   67  20  17 NW8       30.15S
HILL AFB       NOT AVBL
LOGAN            N/A     60  30  32 NW5       30.16S
OGDEN            N/A     61  27  27 NW7G17    30.16S
SALT LAKE CITY   N/A     64  34  32 NW9G20    30.15S
TOOELE VALLEY    N/A     61  36  39 N14       30.17S
WENDOVER         N/A     64  21  19 SE12      30.15F
HEBER CITY       N/A     64  28  25 SW12G18   30.11S
WEST JORDAN      N/A     61  35  38 NW22      30.15S

$$

UTZ011>015-024>027-232100-

CENTRAL/NORTHEAST UTAH

CITY           SKY/WX    TMP DP  RH WIND       PRES   REMARKS
PROVO AIRPORT    N/A     65  37  35 NW9       30.13F
MOAB/CANYONLAN   N/A     80  20  10 NW12G21   29.99F
DELTA            N/A     64  28  25 N5        30.13F
PRICE            N/A     71  25  17 W16G26    30.09F
RICHFIELD      SUNNY     72  30  21 W12G18    30.09F
ROOSEVELT        N/A     73  18  12 W28G33    30.06F
VERNAL           N/A     73  28  18 W10G25    30.02F

$$

UTZ013>016-019>022-027-232100-

SOUTHERN UTAH

CITY           SKY/WX    TMP DP  RH WIND       PRES   REMARKS
BRYCE CANYON     N/A     67  15  13 W15       30.20F
CEDAR CITY       N/A     72  25  17 CALM      30.11F
MILFORD          N/A     70  34  26 MISG      30.11F
ST GEORGE        N/A     83  24  11 W7        29.98F
HANKSVILLE       N/A     81  21  11 W8        30.01F
KANAB          SUNNY     79  16   9 SW5G20    30.10F
BLANDING         N/A     74  19  12 S5G18     30.17F

$$

REGIONAL REPORTS     COLORADO/ARIZONA

CITY           SKY/WX    TMP DP  RH WIND       PRES   REMARKS
CRAIG, CO        N/A     68  35  29 W18       30.06F
GRAND JUNCTION   N/A     76  28  17 VRB7G18   30.01F
RIFLE, CO        N/A     73  26  17 W16G24    30.03F
MONTROSE, CO     N/A     72  18  13 NW12      30.07F
CORTEZ, CO       N/A     74  15  10 NW13G28   30.12F
COLORADO CITY    N/A     79  21  11 NW13G21   30.11F
PAGE, AZ         N/A     81  19  10 CALM      30.02F
GRAND CANYON     N/A     72  14  11 SW16G22   30.19F
KINGMAN, AZ      N/A     85  24  11 SW13G23   30.04F
FLAGSTAFF, AZ    N/A     70  20  15 SW17      30.22F

$$

REGIONAL REPORTS    NEVADA/IDAHO/WYOMING

CITY           SKY/WX    TMP DP  RH WIND       PRES   REMARKS
LAS VEGAS, NV    N/A     89  24   9 CALM      29.94F
ELY, NY          N/A     63  11  13 VRB7G18   30.17F
ELKO, NV         N/A     60  21  22 SW10      30.20F
POCATELLO, ID  PTSUNNY   51  37  58 N13       30.24R
BURLEY, ID       N/A     55  22  27 W12G25    30.20S
FORT BRIDGER,    N/A     58  22  24 W24G36    30.18F
EVANSTON, WY     N/A     55  24  30 W23G36    30.17S
ROCK SPRINGS,    N/A     59  21  23 W21G29    30.11F
KEMMERER, WY     N/A     52  21  30 W25G31    30.17R

$$




USA.gov is the U.S. government's official web portal to all federal, state and local government web resources and services.